User: anonymous   Login
Location: Cucq
(50.4773°N, 1.6202°E)
Time: 18:03:50
(UTC+00:00)
Language:

SL-16 R/B - Orbit

View from above orbital plane
View from above orbital plane
View from above satellite
View from above satellite

Ground track
Ground track

The orbit data is extracted from the following two-line orbital elements,

1 27006U 01056F   20298.40610569 -.00000043  00000-0  11487-5 0  9993
2 27006  99.4925  68.0850 0014726  10.1515  59.0638 13.70964424944384
Epoch (UTC): 24 October 2020 09:44:47
Eccentricity: 0.0014726
inclination: 99.4925°
perigee height: 985 km
apogee height: 1007 km
right ascension of ascending node: 68.0850°
argument of perigee: 10.1515°
revolutions per day: 13.70964424
mean anomaly at epoch: 59.0638°
orbit number at epoch: 94438

The dashed part of the orbit path shows where the satellite is in the earth's shadow,  

DLR